This is the latest recevied weather packets stored in our database for station/object HB9FHL-13. If no packets are shown the sender has not sent any weather packets the latest 10 day(s).
| Time | Temp. | Humidity | Pressure | Rain* | Wind** | Luminosity | Snow |
|---|---|---|---|---|---|---|---|
| 1777895264 | 17.78° C | - | 1014.6 hPa | 0 mm | - | - | - |
| 1777894964 | 17.22° C | - | 1013.4 hPa | 0 mm | - | - | - |
| 1777894663 | 17.22° C | - | 1016.3 hPa | 0 mm | - | - | - |
| 1777894363 | 16.11° C | - | 1013.9 hPa | 0 mm | - | - | - |
| 1777894063 | 16.11° C | - | 1013 hPa | 0 mm | - | - | - |
| 1777893762 | 16.11° C | - | 1011.8 hPa | 0 mm | - | - | - |
| 1777893462 | 16.11° C | - | 1013.2 hPa | 0 mm | - | - | - |
| 1777893161 | 16.67° C | - | 1012.2 hPa | 0 mm | - | - | - |
| 1777892861 | 16.11° C | - | 1013.8 hPa | 0 mm | - | - | - |
| 1777892256 | 17.22° C | - | 1012.7 hPa | 0 mm | - | - | - |
| 1777891956 | 16.67° C | - | 1013 hPa | 0 mm | - | - | - |
| 1777891653 | 16.67° C | - | 1013.6 hPa | 0 mm | - | - | - |
| 1777891350 | 15.56° C | - | 1013.7 hPa | 0 mm | - | - | - |
| 1777891049 | 16.67° C | - | 1013.4 hPa | 0 mm | - | - | - |
| 1777890746 | 16.11° C | - | 1012.3 hPa | 0 mm | - | - | - |
| 1777890445 | 15.56° C | - | 1015 hPa | 0 mm | - | - | - |
| 1777890144 | 15° C | - | 1014.6 hPa | 0 mm | - | - | - |
| 1777889844 | 15.56° C | - | 1015.5 hPa | 0 mm | - | - | - |
| 1777889542 | 15.56° C | - | 1016.8 hPa | 0 mm | - | - | - |
| 1777889241 | 15.56° C | - | 1012 hPa | 0 mm | - | - | - |
| 1777888940 | 15.56° C | - | 1013.5 hPa | 0 mm | - | - | - |
| 1777888641 | 15° C | - | 1013.7 hPa | 0 mm | - | - | - |
| 1777888339 | 16.11° C | - | 1013.7 hPa | 0 mm | - | - | - |
| 1777888036 | 16.11° C | - | 1014.2 hPa | 0 mm | - | - | - |
| 1777887734 | 15.56° C | - | 1017.4 hPa | 0 mm | - | - | - |
* Rain since midnight (hover to see other rain measurements)
** Current wind speed in m/s (hover to see current wind gust speed)